This is the latest recevied weather packets stored in our database for station/object OE2ATN. If no packets are shown the sender has not sent any weather packets the latest 10 day(s).
| Time | Temp. | Humidity | Pressure | Rain* | Wind** | Luminosity | Snow |
|---|---|---|---|---|---|---|---|
| 1777983597 | 21.11° C | 38% | 1014.5 hPa | 0 mm | - | - | - |
| 1777983297 | 21.11° C | 38% | 1014.5 hPa | 0 mm | - | - | - |
| 1777982997 | 21.67° C | 35% | 1014.5 hPa | 0 mm | - | - | - |
| 1777982697 | 21.11° C | 42% | 1014.6 hPa | 0 mm | - | - | - |
| 1777982397 | 21.11° C | 38% | 1014.4 hPa | 0 mm | - | - | - |
| 1777982097 | 21.11° C | 37% | 1014.5 hPa | 0 mm | - | - | - |
| 1777981797 | 21.67° C | 35% | 1014.5 hPa | 0 mm | - | - | - |
| 1777981495 | 21.67° C | 36% | 1014.6 hPa | 0 mm | - | - | - |
| 1777981195 | 22.22° C | 34% | 1014.6 hPa | 0 mm | - | - | - |
| 1777980895 | 22.22° C | 36% | 1014.5 hPa | 0 mm | - | - | - |
| 1777980596 | 22.78° C | 35% | 1014.5 hPa | 0 mm | - | - | - |
| 1777980297 | 22.78° C | 30% | 1014.6 hPa | 0 mm | - | - | - |
| 1777979996 | 22.22° C | 33% | 1014.6 hPa | 0 mm | - | - | - |
| 1777979697 | 22.22° C | 33% | 1014.7 hPa | 0 mm | - | - | - |
| 1777979396 | 22.22° C | 33% | 1014.7 hPa | 0 mm | - | - | - |
| 1777979096 | 22.22° C | 34% | 1014.7 hPa | 0 mm | - | - | - |
| 1777978796 | 22.22° C | 32% | 1014.8 hPa | 0 mm | - | - | - |
| 1777978496 | 22.22° C | 35% | 1014.8 hPa | 0 mm | - | - | - |
| 1777978195 | 21.67° C | 34% | 1014.9 hPa | 0 mm | - | - | - |
| 1777977895 | 21.67° C | 36% | 1014.9 hPa | 0 mm | - | - | - |
| 1777977595 | 21.67° C | 37% | 1015.1 hPa | 0 mm | - | - | - |
| 1777977295 | 21.67° C | 35% | 1015.2 hPa | 0 mm | - | - | - |
| 1777976995 | 21.67° C | 35% | 1015.2 hPa | 0 mm | - | - | - |
| 1777976695 | 21.67° C | 34% | 1015.3 hPa | 0 mm | - | - | - |
| 1777976397 | 21.67° C | 35% | 1015.3 hPa | 0 mm | - | - | - |
* Rain latest hour (hover to see other rain measurements)
** Current wind speed in m/s (hover to see current wind gust speed)